| time (UTC) | temp C | wind direction | speed KPH | gust KPH | rain 1hr cm | rain 24hr cm | rain mn cm | humidity % | barometer mb |
| 20260504233722 | 0 | 90 | 9.7 | 30.6 | 0.00 | 0.00 | 0.00 | 83 | 956.0 |
| 20260504233222 | 0 | 137 | 8.0 | 27.4 | 0.00 | 0.00 | 0.00 | 83 | 956.0 |
| 20260504232722 | 0 | 119 | 8.0 | 29.0 | 0.00 | 0.00 | 0.00 | 83 | 956.0 |
| 20260504232222 | 0 | 196 | 8.0 | 29.0 | 0.00 | 0.00 | 0.00 | 83 | 956.0 |
| 20260504231722 | 0 | 133 | 8.0 | 27.4 | 0.00 | 0.00 | 0.00 | 83 | 956.0 |
| 20260504231152 | 0 | 97 | 8.0 | 27.4 | 0.00 | 0.00 | 0.00 | 84 | 956.0 |
| 20260504230652 | 0 | 112 | 8.0 | 27.4 | 0.00 | 0.00 | 0.00 | 84 | 956.0 |
| 20260504230152 | 0 | 156 | 8.0 | 24.1 | 0.00 | 0.00 | 0.00 | 84 | 956.0 |
| 20260504225652 | 0 | 101 | 8.0 | 29.0 | 0.00 | 0.00 | 0.00 | 84 | 956.0 |
| 20260504225122 | 0 | 122 | 8.0 | 29.0 | 0.00 | 0.00 | 0.00 | 83 | 956.0 |
| 20260504224622 | 0 | 171 | 8.0 | 29.0 | 0.00 | 0.00 | 0.00 | 82 | 956.0 |
| 20260504224122 | 0 | 144 | 8.0 | 27.4 | 0.00 | 0.00 | 0.00 | 82 | 956.0 |
| 20260504223622 | 0 | 91 | 8.0 | 30.6 | 0.00 | 0.00 | 0.00 | 81 | 956.0 |
| 20260504223052 | 0 | 53 | 8.0 | 30.6 | 0.00 | 0.00 | 0.00 | 81 | 956.0 |
| 20260504222522 | 0 | 209 | 6.4 | 27.4 | 0.00 | 0.00 | 0.00 | 80 | 956.0 |
| 20260504222022 | 0 | 2 | 6.4 | 27.4 | 0.00 | 0.00 | 0.00 | 79 | 956.0 |
| 20260504221522 | 0 | 127 | 6.4 | 22.5 | 0.00 | 0.00 | 0.00 | 78 | 956.0 |
| 20260504220952 | 0 | 91 | 8.0 | 22.5 | 0.00 | 0.00 | 0.00 | 78 | 956.0 |
| 20260504220452 | 0 | 118 | 8.0 | 22.5 | 0.00 | 0.00 | 0.00 | 77 | 955.6 |
| 20260504215952 | 0 | 119 | 8.0 | 30.6 | 0.00 | 0.00 | 0.00 | 77 | 955.6 |
| 20260504215452 | 0 | 133 | 8.0 | 30.6 | 0.00 | 0.00 | 0.00 | 76 | 956.0 |
| 20260504214952 | 0 | 39 | 8.0 | 30.6 | 0.00 | 0.00 | 0.00 | 77 | 955.6 |
| 20260504214452 | 0 | 15 | 8.0 | 29.0 | 0.00 | 0.00 | 0.00 | 76 | 955.6 |
| 20260504213951 | 0 | 5 | 9.7 | 29.0 | 0.00 | 0.00 | 0.00 | 75 | 955.6 |
| 20260504213451 | 0 | 155 | 8.0 | 27.4 | 0.00 | 0.00 | 0.00 | 74 | 955.5 |
| 20260504212951 | 1 | 171 | 6.4 | 22.5 | 0.00 | 0.00 | 0.00 | 74 | 956.0 |
| 20260504212421 | 0 | 349 | 4.8 | 20.9 | 0.00 | 0.00 | 0.00 | 75 | 956.0 |
| 20260504211921 | 0 | 46 | 4.8 | 19.3 | 0.00 | 0.00 | 0.00 | 75 | 956.0 |
| 20260504211421 | 0 | 67 | 4.8 | 19.3 | 0.00 | 0.00 | 0.00 | 74 | 956.0 |
| 20260504210851 | 0 | 91 | 4.8 | 19.3 | 0.00 | 0.00 | 0.00 | 73 | 956.0 |
| 20260504210351 | 0 | 37 | 4.8 | 20.9 | 0.00 | 0.00 | 0.00 | 72 | 956.0 |
| 20260504205851 | 0 | 59 | 6.4 | 20.9 | 0.00 | 0.00 | 0.00 | 71 | 956.0 |
| 20260504205351 | 0 | 102 | 4.8 | 24.1 | 0.00 | 0.00 | 0.00 | 70 | 956.0 |
| 20260504204821 | 1 | 114 | 6.4 | 24.1 | 0.00 | 0.00 | 0.00 | 70 | 956.0 |
| 20260504204321 | 1 | 183 | 4.8 | 17.7 | 0.00 | 0.00 | 0.00 | 70 | 956.0 |
| 20260504203821 | 1 | 136 | 4.8 | 17.7 | 0.00 | 0.00 | 0.00 | 71 | 956.0 |
| 20260504203321 | 1 | 132 | 4.8 | 17.7 | 0.00 | 0.00 | 0.00 | 72 | 956.0 |
| 20260504202751 | 1 | 114 | 4.8 | 17.7 | 0.00 | 0.00 | 0.00 | 71 | 956.0 |
| 20260504202251 | 1 | 109 | 4.8 | 17.7 | 0.00 | 0.00 | 0.00 | 72 | 956.0 |
| 20260504201751 | 1 | 81 | 4.8 | 17.7 | 0.00 | 0.00 | 0.00 | 72 | 956.0 |
| 20260504201251 | 1 | 93 | 4.8 | 16.1 | 0.00 | 0.00 | 0.00 | 72 | 956.0 |
| 20260504200751 | 1 | 81 | 4.8 | 17.7 | 0.00 | 0.00 | 0.00 | 72 | 956.0 |
| 20260504200221 | 1 | 117 | 6.4 | 20.9 | 0.00 | 0.00 | 0.00 | 72 | 956.1 |
| 20260504195721 | 1 | 92 | 8.0 | 29.0 | 0.00 | 0.00 | 0.00 | 71 | 956.1 |
| 20260504195221 | 1 | 149 | 8.0 | 38.6 | 0.00 | 0.00 | 0.00 | 71 | 956.0 |
| 20260504194721 | 1 | 145 | 8.0 | 38.6 | 0.00 | 0.00 | 0.00 | 70 | 956.0 |
| 20260504194151 | 1 | 102 | 6.4 | 22.5 | 0.00 | 0.00 | 0.00 | 70 | 956.0 |
| 20260504193651 | 1 | 132 | 4.8 | 22.5 | 0.00 | 0.00 | 0.00 | 71 | 956.0 |
| 20260504193151 | 1 | 60 | 4.8 | 19.3 | 0.00 | 0.00 | 0.00 | 71 | 956.0 |
| 20260504192621 | 1 | 71 | 6.4 | 22.5 | 0.00 | 0.00 | 0.00 | 71 | 956.0 |
| 20260504192121 | 2 | 21 | 6.4 | 22.5 | 0.00 | 0.00 | 0.00 | 70 | 956.1 |
| 20260504191621 | 2 | 106 | 6.4 | 22.5 | 0.00 | 0.00 | 0.00 | 69 | 956.1 |
| 20260504191051 | 2 | 354 | 4.8 | 14.5 | 0.00 | 0.00 | 0.00 | 70 | 956.1 |
| 20260504190551 | 2 | 83 | 4.8 | 19.3 | 0.00 | 0.00 | 0.00 | 71 | 956.2 |
| 20260504190051 | 2 | 5 | 4.8 | 19.3 | 0.00 | 0.00 | 0.00 | 71 | 956.3 |
| 20260504185551 | 2 | 111 | 4.8 | 17.7 | 0.00 | 0.00 | 0.00 | 70 | 956.1 |
| 20260504185051 | 2 | 116 | 4.8 | 17.7 | 0.00 | 0.00 | 0.00 | 69 | 956.2 |
| 20260504184551 | 2 | 122 | 6.4 | 22.5 | 0.00 | 0.00 | 0.00 | 68 | 956.2 |
| 20260504184051 | 2 | 116 | 8.0 | 22.5 | 0.00 | 0.00 | 0.00 | 67 | 956.1 |
| 20260504183550 | 2 | 111 | 8.0 | 22.5 | 0.00 | 0.00 | 0.00 | 68 | 956.1 |
| 20260504183050 | 2 | 87 | 6.4 | 19.3 | 0.00 | 0.00 | 0.00 | 67 | 956.1 |
| 20260504182550 | 2 | 21 | 6.4 | 19.3 | 0.00 | 0.00 | 0.00 | 66 | 956.1 |
| 20260504182021 | 3 | 82 | 8.0 | 25.7 | 0.00 | 0.00 | 0.00 | 62 | 956.1 |
| 20260504181520 | 3 | 91 | 8.0 | 27.4 | 0.00 | 0.00 | 0.00 | 60 | 956.1 |
| 20260504180950 | 3 | 130 | 8.0 | 27.4 | 0.00 | 0.00 | 0.00 | 59 | 956.1 |
| 20260504180450 | 3 | 154 | 9.7 | 30.6 | 0.00 | 0.00 | 0.00 | 59 | 956.1 |
| 20260504175950 | 3 | 97 | 9.7 | 30.6 | 0.00 | 0.00 | 0.00 | 61 | 956.3 |
| 20260504175450 | 3 | 108 | 11.3 | 30.6 | 0.00 | 0.00 | 0.00 | 62 | 956.1 |
| 20260504174950 | 3 | 96 | 11.3 | 41.8 | 0.00 | 0.00 | 0.00 | 63 | 956.1 |
| 20260504174450 | 3 | 79 | 9.7 | 41.8 | 0.00 | 0.00 | 0.00 | 63 | 956.0 |
| 20260504173950 | 3 | 62 | 9.7 | 41.8 | 0.00 | 0.00 | 0.00 | 58 | 956.0 |
| 20260504173450 | 3 | 160 | 8.0 | 33.8 | 0.00 | 0.00 | 0.00 | 56 | 956.0 |
| 20260504172950 | 4 | 111 | 9.7 | 29.0 | 0.00 | 0.00 | 0.00 | 56 | 956.0 |
| 20260504172450 | 4 | 128 | 9.7 | 29.0 | 0.00 | 0.00 | 0.00 | 56 | 956.0 |
| 20260504171920 | 4 | 88 | 9.7 | 32.2 | 0.00 | 0.00 | 0.00 | 56 | 956.0 |
| 20260504171420 | 4 | 135 | 9.7 | 32.2 | 0.00 | 0.00 | 0.00 | 55 | 956.0 |
| 20260504170920 | 4 | 63 | 8.0 | 27.4 | 0.00 | 0.00 | 0.00 | 54 | 956.0 |
| 20260504170420 | 4 | 63 | 9.7 | 35.4 | 0.00 | 0.00 | 0.00 | 54 | 956.0 |
| 20260504160250 | 5 | 66 | 8.0 | 24.1 | 0.00 | 0.00 | 0.00 | 51 | 956.0 |
| 20260504151119 | 6 | 125 | 12.9 | 43.5 | 0.00 | 0.00 | 0.00 | 52 | 956.0 |
| 20260504150619 | 6 | 109 | 12.9 | 43.5 | 0.00 | 0.00 | 0.00 | 51 | 956.0 |
| 20260504140849 | 6 | 98 | 8.0 | 33.8 | 0.00 | 0.00 | 0.00 | 55 | 956.0 |
| 20260504140319 | 5 | 135 | 8.0 | 33.8 | 0.00 | 0.00 | 0.00 | 56 | 956.0 |
| 20260504130749 | 6 | 80 | 6.4 | 16.1 | 0.00 | 0.00 | 0.00 | 57 | 956.4 |
| 20260504130249 | 7 | 357 | 6.4 | 17.7 | 0.00 | 0.00 | 0.00 | 54 | 956.4 |
| 20260504120248 | 5 | 164 | 12.9 | 48.3 | 0.00 | 0.00 | 0.00 | 53 | 956.2 |
| 20260504110718 | 6 | 25 | 8.0 | 33.8 | 0.00 | 0.00 | 0.00 | 50 | 956.0 |
| 20260504110218 | 6 | 69 | 8.0 | 33.8 | 0.00 | 0.00 | 0.00 | 51 | 956.0 |
| 20260504100517 | 7 | 150 | 9.7 | 30.6 | 0.00 | 0.00 | 0.00 | 60 | 956.1 |
| 20260504081717 | 10 | 162 | 6.4 | 20.9 | 0.00 | 0.00 | 0.00 | 47 | 955.4 |
| 20260504081217 | 11 | 97 | 4.8 | 20.9 | 0.00 | 0.00 | 0.00 | 46 | 955.7 |
| 20260504080717 | 11 | 46 | 4.8 | 16.1 | 0.00 | 0.00 | 0.00 | 46 | 955.8 |
| 20260504080217 | 12 | 80 | 3.2 | 14.5 | 0.00 | 0.00 | 0.00 | 48 | 955.8 |
| 20260504070146 | 9 | 104 | 3.2 | 8.0 | 0.00 | 0.00 | 0.00 | 59 | 955.8 |
| 20260504050716 | 5 | 331 | 1.6 | 8.0 | 0.00 | 0.00 | 0.00 | 66 | 955.6 |
| 20260504050146 | 5 | 37 | 3.2 | 11.3 | 0.00 | 0.00 | 0.00 | 69 | 955.4 |
| 20260504045646 | 3 | 55 | 6.4 | 11.3 | 0.00 | 0.00 | 0.00 | 71 | 955.4 |
| 20260504045146 | 3 | 56 | 6.4 | 11.3 | 0.00 | 0.00 | 0.00 | 70 | 955.2 |
| 20260504044646 | 3 | 68 | 6.4 | 11.3 | 0.00 | 0.00 | 0.00 | 69 | 955.3 |
| 20260504044146 | 3 | 44 | 6.4 | 12.9 | 0.00 | 0.00 | 0.00 | 69 | 955.4 |
| 20260504043616 | 3 | 42 | 6.4 | 12.9 | 0.00 | 0.00 | 0.00 | 70 | 955.5 |
| 20260504043046 | 3 | 50 | 6.4 | 9.7 | 0.00 | 0.00 | 0.00 | 70 | 955.6 |
| 20260504042546 | 3 | 57 | 4.8 | 9.7 | 0.00 | 0.00 | 0.00 | 71 | 955.6 |
| 20260504042046 | 2 | 65 | 6.4 | 11.3 | 0.00 | 0.00 | 0.00 | 73 | 956.0 |
| 20260504041546 | 1 | 72 | 4.8 | 11.3 | 0.00 | 0.00 | 0.00 | 75 | 956.0 |
| 20260504041046 | 1 | 68 | 4.8 | 9.7 | 0.00 | 0.00 | 0.00 | 75 | 956.0 |
| 20260504040546 | 1 | 55 | 4.8 | 8.0 | 0.00 | 0.00 | 0.00 | 75 | 956.0 |
| 20260504040046 | 2 | 73 | 4.8 | 8.0 | 0.00 | 0.00 | 0.00 | 74 | 956.0 |
| 20260504035546 | 1 | 54 | 3.2 | 8.0 | 0.00 | 0.00 | 0.00 | 75 | 956.0 |
| 20260504035046 | 1 | 57 | 3.2 | 6.4 | 0.00 | 0.00 | 0.00 | 75 | 956.0 |
| 20260504034546 | 1 | 67 | 3.2 | 6.4 | 0.00 | 0.00 | 0.00 | 75 | 956.0 |
| 20260504034046 | 1 | 62 | 3.2 | 6.4 | 0.00 | 0.00 | 0.00 | 75 | 956.0 |
| 20260504033546 | 1 | 68 | 3.2 | 9.7 | 0.00 | 0.00 | 0.00 | 76 | 956.0 |
| 20260504033046 | 1 | 67 | 3.2 | 9.7 | 0.00 | 0.00 | 0.00 | 77 | 956.0 |
| 20260504032546 | 1 | 65 | 4.8 | 9.7 | 0.00 | 0.00 | 0.00 | 77 | 956.0 |
| 20260504032015 | 1 | 83 | 4.8 | 9.7 | 0.00 | 0.00 | 0.00 | 77 | 956.0 |
| 20260504031515 | 1 | 63 | 4.8 | 9.7 | 0.00 | 0.00 | 0.00 | 77 | 956.2 |
| 20260504031016 | 1 | 59 | 4.8 | 9.7 | 0.00 | 0.00 | 0.00 | 78 | 956.1 |
| 20260504030515 | 1 | 65 | 4.8 | 9.7 | 0.00 | 0.00 | 0.00 | 78 | 956.3 |
| 20260504030015 | 1 | 33 | 3.2 | 9.7 | 0.00 | 0.00 | 0.00 | 78 | 956.4 |
| 20260504025446 | 1 | 23 | 4.8 | 9.7 | 0.00 | 0.00 | 0.00 | 77 | 956.5 |
| 20260504024945 | 1 | 14 | 6.4 | 9.7 | 0.00 | 0.00 | 0.00 | 77 | 956.5 |
| 20260504024445 | 1 | 22 | 6.4 | 9.7 | 0.00 | 0.00 | 0.00 | 76 | 956.5 |
| 20260504023945 | 1 | 15 | 4.8 | 9.7 | 0.00 | 0.00 | 0.00 | 77 | 956.6 |
| 20260504023445 | 1 | 285 | 3.2 | 6.4 | 0.00 | 0.00 | 0.00 | 76 | 956.5 |
| 20260504022945 | 1 | 262 | 3.2 | 6.4 | 0.00 | 0.00 | 0.00 | 73 | 957.0 |
| 20260504022445 | 1 | 310 | 4.8 | 8.0 | 0.00 | 0.00 | 0.00 | 73 | 957.0 |
| 20260504021945 | 1 | 309 | 4.8 | 9.7 | 0.00 | 0.00 | 0.00 | 72 | 957.0 |
| 20260504021445 | 1 | 29 | 4.8 | 9.7 | 0.00 | 0.00 | 0.00 | 72 | 957.0 |
| 20260504020945 | 1 | 60 | 3.2 | 8.0 | 0.00 | 0.00 | 0.00 | 71 | 957.0 |
| 20260504020445 | 1 | 4 | 1.6 | 6.4 | 0.00 | 0.00 | 0.00 | 71 | 957.1 |
| 20260504015945 | 1 | 278 | 1.6 | 4.8 | 0.00 | 0.00 | 0.00 | 70 | 957.2 |
| 20260504015445 | 1 | 336 | 3.2 | 6.4 | 0.00 | 0.00 | 0.00 | 70 | 957.2 |
| 20260504014915 | 1 | 19 | 3.2 | 6.4 | 0.00 | 0.00 | 0.00 | 70 | 957.3 |
| 20260504014415 | 1 | 7 | 3.2 | 6.4 | 0.00 | 0.00 | 0.00 | 69 | 957.3 |
| 20260504013845 | 1 | 6 | 3.2 | 8.0 | 0.00 | 0.00 | 0.00 | 69 | 957.3 |
| 20260504013345 | 1 | 12 | 3.2 | 8.0 | 0.00 | 0.00 | 0.00 | 69 | 957.4 |
| 20260504012845 | 1 | 18 | 1.6 | 8.0 | 0.00 | 0.00 | 0.00 | 68 | 957.5 |
| 20260504012315 | 2 | 38 | 1.6 | 4.8 | 0.00 | 0.00 | 0.00 | 67 | 957.4 |
| 20260504011815 | 2 | 83 | 3.2 | 4.8 | 0.00 | 0.00 | 0.00 | 67 | 957.6 |
| 20260504011315 | 2 | 40 | 3.2 | 6.4 | 0.00 | 0.00 | 0.00 | 68 | 957.6 |
| 20260504010815 | 2 | 22 | 3.2 | 6.4 | 0.00 | 0.00 | 0.00 | 68 | 957.6 |
| 20260504010315 | 2 | 335 | 3.2 | 6.4 | 0.00 | 0.00 | 0.00 | 68 | 957.5 |
| 20260504005815 | 2 | 318 | 3.2 | 6.4 | 0.00 | 0.00 | 0.00 | 68 | 958.0 |
| 20260504005315 | 1 | 279 | 3.2 | 8.0 | 0.00 | 0.00 | 0.00 | 68 | 958.0 |
| 20260504004815 | 1 | 273 | 3.2 | 9.7 | 0.00 | 0.00 | 0.00 | 69 | 957.6 |
| 20260504004315 | 1 | 257 | 4.8 | 9.7 | 0.00 | 0.00 | 0.00 | 70 | 958.0 |
| 20260504003815 | 1 | 299 | 4.8 | 9.7 | 0.00 | 0.00 | 0.00 | 69 | 958.0 |
| 20260504003245 | 1 | 291 | 6.4 | 9.7 | 0.00 | 0.00 | 0.00 | 69 | 958.0 |
| 20260504002745 | 1 | 293 | 6.4 | 9.7 | 0.00 | 0.00 | 0.00 | 69 | 958.0 |
| 20260504002245 | 1 | 294 | 6.4 | 9.7 | 0.00 | 0.00 | 0.00 | 69 | 958.0 |
| 20260504001744 | 1 | 304 | 6.4 | 11.3 | 0.00 | 0.00 | 0.00 | 68 | 958.1 |
| 20260504001214 | 1 | 313 | 6.4 | 14.5 | 0.00 | 0.00 | 0.00 | 68 | 958.2 |
| 20260504000645 | 1 | 285 | 6.4 | 14.5 | 0.00 | 0.00 | 0.00 | 68 | 958.2 |
| 20260504000144 | 1 | 294 | 6.4 | 12.9 | 0.00 | 0.00 | 0.00 | 68 | 958.1 |
| 20260503235644 | 1 | 282 | 6.4 | 12.9 | 0.00 | 0.00 | 0.00 | 68 | 958.2 |
| 20260503235144 | 2 | 293 | 6.4 | 12.9 | 0.00 | 0.00 | 0.00 | 67 | 958.4 |
| 20260503234644 | 1 | 288 | 6.4 | 11.3 | 0.00 | 0.00 | 0.00 | 68 | 958.4 |
| 20260503234144 | 1 | 290 | 6.4 | 11.3 | 0.00 | 0.00 | 0.00 | 68 | 958.4 |